Location: Alafon
(8.4500°N, 4.2333°E)
Time: 01:44:48
(UTC+00:00)

USA 234 - Pass Details

Date: 05 July 2020
Orbit: 1101 x 1106 km, 123.0° (Epoch: 02 August)

Event Time Altitude Azimuth Distance (km) Brightness Sun altitude
Exits shadow 18:35:34 - 144° (SE) 3,551 5.4 -7.6°
Reaches altitude 10° 18:37:07 10° 145° (SE) 2,953 5.0 -7.9°
Maximum altitude 18:43:39 86° 232° (SW) 1,105 3.3 -9.4°
Drops below altitude 10° 18:50:11 10° 322° (NW) 2,949 6.6 -10.9°
Sets 18:52:39 0° 323° (NW) 3,906 7.4 -11.4°
